STARLINK-1122, 44949

Orbit data source: Space-Track

STARLINK-1122, 44949 is a payload satellite owned by SpaceX/Seattle (US) in LEO that was launched on Tue, 07 Jan 2020 UTC via an FALCON 9 launch vehicle from the Air Force Eastern Test Range (AFETR). Payload-class satellites include a variety of spacecraft equipped with specific instruments for various scientific and technological missions. These include communications satellites like Starlink; space stations such as the ISS; scientific satellites like the Hubble; Earth observation satellites from companies like Planet Labs, Umbra, and HawkEye 360; GPS; miniature CubeSats for education and research; and military/defense satellites.

Loading next visibility...
Identifier
44949, 2020-001AM
Orbit
LEO
Country
Flag of USUS
Related business
Manufacturer
SpaceX/Seattle
Mission
Operational Commercial Communications
Bus & Motor
STARLINK, Unknown motor
Mass
260 kg wet, ~248 kg dry
Launch date (UTC)
2020-01-07 (6 years ago)
Launch vehicle
FALCON 9
Launch site
Air Force Eastern Test Range (AFETR)
Object type
Payload
Rocket body
Debris
Shape & HBR
Box + 1 Pan, 10.1 m
Radar Cross Section
13.562 m², Large (>1 m²)

Expand to show TLE details & history
Last TLE update: 14 hours ago

TLE from 14 hours ago
0 STARLINK-1122
1 44949U 20001AM  25340.54101131  .00021093  00000-0  14305-2 0  9993
2 44949  53.0558  24.7771 0001400  95.2412 264.8737 15.06405170326089
Epoch: 2025-12-06T12:59Z
TLE epoch observation values (Epoch: 2025-12-06T12:59:03.377Z)
Latitude
0.00001°
Longitude
114.44576°
Altitude
548.162 km
Speed
7.589 km/s
True Right ascension
01h 39m 06s
True Declination
0° 00' 00"
Sunlit
Object was in full shadow at epoch
Visualization orbit readout
Latitude
Unknown
Longitude
Unknown
Altitude
Unknown
Speed
Unknown
Apparent Right ascension
Unknown
Apparent Declination
Unknown
Sunlit
N/A
Visualization observer readout
Local Sidereal Time
00:35:52
Azimuth
Unknown
Elevation
Unknown
Doppler factor
Unknown
Orbital elements
Apogee altitude
548.436 km
Perigee altitude
546.497 km
Semi-major axis
6,925.603 km
Eccentricity
0.00014
Inclination
53.0558°
RAAN
24.7771°
Arg. of periapsis
95.2412°
True anomaly
264.85772°
Mean anomaly
264.8737°
Eccentric anomaly
264.86571°
Mean motion
3.7658 °/min
Orbital period
95.6 mins
BSTAR
0.0014305
Loading maneuver chart data...
Computing Atmospheric mass density...

Documentation

Showing up to 5 results
|